星链-35517(STARLINK-35517)

导读

STARLINK-35517是美国于2025年10月29日发射的星链系列卫星,隶属于SpaceX星链星座组网项目,服务于全球卫星互联网覆盖,为地面偏远地区、海洋、航空等场景提供高速低延迟的宽带接入服务,该卫星进一步扩充了星链低轨星座规模,提升系统服务稳定性与覆盖密度。

Basic Information
目录编号:
66244
目录名称:
STARLINK-35517
国际标识:
2025-245L
轨道中心:
EARTH
卫星名称:
星链-35517
卫星全名:
星链-35517(STARLINK-35517)
卫星状态:
在轨 (已飞行310 天)
发射日期:
2025-10-29 UTC
国别 :
美国 (US)
星等 :
--
Orbit Information
数据来源 国际轨道数据
星历时间: 2026-09-04T02:03:06+0800
12小时前
查看轨道信息
半长轴: 6840.856km
偏心率: 0.0000601
轨道倾角: 53.158°
近地点辐角 88.272°
升交点赤经 175.753°
平近点角 271.835°
近地点: 462.307km
远地点: 463.131km
周期: 93.848分钟
每日圈数: 15.34395
Detailed Information
固有亮度:
5
最大亮度:
2.5
卫星平台:
Starlink V1.0
覆盖范围:
全球
运营商:
太空探索技术公司
运营商所在国:
美国
制造商(研发单位):
太空探索技术公司
制造商所在国:
美国
使用方式:
暂无
Satellite Introduction
Starlink 计划是 SpaceX 推出的全球卫星互联网项目,通过发射低轨道卫星,为全球尤其是偏远地区提供高速、低延迟的互联网服务。自 2019 年起,Starlink 已部署数千颗卫星,旨在缩小全球数字鸿沟,推动互联网普及。该项目还为军事、航空等行业提供通信支持,带来广泛经济效益。
2D Orbit Map
3D Orbit Map
Orbit Altitude Analysis Chart
Orbit Inclination Analysis Chart
Orbit Comprehensive Analysis Chart
View Comprehensive Chart
Conjunction Data List
Event ID Objects TCA Miss Dist (km) Collision Risk Probability Collision Risk Index (CRI) Action
CDM_260903-031805-227806-624422
2026-09-03T
03:18:14+0000
2.961 km
极远距离
1.195804E-6 低风险 0.37